When you browse on this site, cookies collect data to enhance your experience and personalize the content and advertising you see.
Visit our Privacy Policy to learn more. By continuing to use the site, you agree to this use of cookies and data.
  • In United Kingdom
  • List of Countries
  • For 7 days
  • Water Temperature
  • Weather Map
  • Weather Widgets
  • user-avatar
    Login

    Hourly Weather Tibissa

    Today, 3 June, Wednesday

    Time Temperature Precipitation Wind Pressure Humidity
    00:00 +22°C° 0 mm 1 mps 685 mmHg 55%
    01:00 +19°C° 0 mm 0 mps 684 mmHg 58%
    02:00 +19°C° 0 mm 0 mps 684 mmHg 60%
    03:00 +18°C° 0 mm 0 mps 683 mmHg 61%
    04:00 +20°C° 0 mm 1 mps 683 mmHg 62%
    05:00 +21°C° 0 mm 1 mps 683 mmHg 58%
    06:00 +21°C° 0 mm 1 mps 684 mmHg 54%
    07:00 +22°C° 0 mm 1 mps 684 mmHg 49%
    08:00 +23°C° 0 mm 2 mps 684 mmHg 45%
    09:00 +24°C° 0 mm 2 mps 685 mmHg 42%
    10:00 +26°C° 0 mm 3 mps 685 mmHg 38%
    11:00 +27°C° 0 mm 3 mps 685 mmHg 37%
    12:00 +27°C° 0 mm 4 mps 684 mmHg 35%
    13:00 +28°C° 0 mm 4 mps 684 mmHg 34%
    14:00 +28°C° 0.1 mm 4 mps 684 mmHg 36%
    15:00 +28°C° 0.1 mm 4 mps 683 mmHg 38%
    16:00 +27°C° 0.1 mm 3 mps 683 mmHg 40%
    17:00 +27°C° 0 mm 3 mps 683 mmHg 40%
    18:00 +27°C° 0 mm 2 mps 683 mmHg 41%
    19:00 +27°C° 0 mm 1 mps 683 mmHg 41%
    20:00 +26°C° 0 mm 2 mps 683 mmHg 43%
    21:00 +25°C° 0 mm 2 mps 683 mmHg 45%
    22:00 +24°C° 0 mm 2 mps 683 mmHg 47%
    23:00 +24°C° 0 mm 2 mps 682 mmHg 49%

    Tomorrow, 4 June, Thursday

    Time Temperature Precipitation Wind Pressure Humidity
    00:00 +23°C° 0 mm 2 mps 682 mmHg 51%
    01:00 +23°C° 0 mm 2 mps 681 mmHg 53%
    02:00 +23°C° 0 mm 2 mps 681 mmHg 54%
    03:00 +21°C° 0 mm 2 mps 681 mmHg 55%
    04:00 +21°C° 0 mm 2 mps 681 mmHg 55%
    05:00 +23°C° 0 mm 2 mps 681 mmHg 53%
    06:00 +22°C° 0 mm 3 mps 681 mmHg 51%
    07:00 +24°C° 0 mm 3 mps 681 mmHg 49%
    08:00 +26°C° 0 mm 3 mps 681 mmHg 43%
    09:00 +28°C° 0 mm 4 mps 682 mmHg 38%
    10:00 +29°C° 0 mm 4 mps 682 mmHg 32%
    11:00 +30°C° 0 mm 5 mps 682 mmHg 30%
    12:00 +32°C° 0 mm 5 mps 682 mmHg 27%
    13:00 +33°C° 0 mm 5 mps 682 mmHg 25%
    14:00 +34°C° 0 mm 6 mps 681 mmHg 24%
    15:00 +34°C° 0 mm 6 mps 681 mmHg 22%
    16:00 +35°C° 0 mm 6 mps 681 mmHg 21%
    17:00 +33°C° 0 mm 5 mps 681 mmHg 24%
    18:00 +32°C° 0 mm 5 mps 681 mmHg 27%
    19:00 +30°C° 0 mm 4 mps 681 mmHg 29%
    20:00 +28°C° 0 mm 4 mps 681 mmHg 38%
    21:00 +25°C° 0 mm 4 mps 680 mmHg 46%
    22:00 +21°C° 0 mm 4 mps 680 mmHg 55%
    23:00 +21°C° 0.1 mm 4 mps 680 mmHg 56%

    Day after tomorrow, 5 June, Friday

    Time Temperature Precipitation Wind Pressure Humidity
    00:00 +20°C° 0.1 mm 4 mps 680 mmHg 58%
    01:00 +19°C° 0.1 mm 4 mps 680 mmHg 60%
    02:00 +18°C° 0.2 mm 4 mps 680 mmHg 63%
    03:00 +17°C° 0.2 mm 5 mps 680 mmHg 67%
    04:00 +17°C° 0.2 mm 5 mps 680 mmHg 70%
    05:00 +17°C° 0 mm 5 mps 680 mmHg 69%
    06:00 +17°C° 0 mm 5 mps 680 mmHg 68%
    07:00 +17°C° 0 mm 6 mps 680 mmHg 67%
    08:00 +20°C° 0 mm 7 mps 681 mmHg 60%
    09:00 +21°C° 0 mm 8 mps 682 mmHg 52%
    10:00 +22°C° 0 mm 10 mps 682 mmHg 45%
    11:00 +23°C° 0 mm 9 mps 683 mmHg 40%
    12:00 +24°C° 0 mm 9 mps 683 mmHg 36%
    13:00 +26°C° 0 mm 9 mps 683 mmHg 31%
    14:00 +26°C° 0 mm 8 mps 683 mmHg 30%
    15:00 +26°C° 0 mm 8 mps 684 mmHg 30%
    16:00 +27°C° 0 mm 8 mps 684 mmHg 30%
    17:00 +26°C° 0 mm 7 mps 684 mmHg 32%
    18:00 +24°C° 0 mm 7 mps 684 mmHg 34%
    19:00 +23°C° 0 mm 6 mps 684 mmHg 36%
    20:00 +22°C° 0 mm 5 mps 684 mmHg 41%
    21:00 +20°C° 0 mm 4 mps 685 mmHg 45%
    22:00 +19°C° 0 mm 3 mps 685 mmHg 50%
    23:00 +19°C° 0 mm 3 mps 685 mmHg 51%

    6 June, Saturday

    Time Temperature Precipitation Wind Pressure Humidity
    00:00 +18°C° 0 mm 2 mps 685 mmHg 53%
    01:00 +19°C° 0 mm 1 mps 685 mmHg 54%
    02:00 +19°C° 0 mm 1 mps 685 mmHg 55%
    03:00 +18°C° 0 mm 1 mps 684 mmHg 56%
    04:00 +16°C° 0 mm 0 mps 684 mmHg 57%
    05:00 +17°C° 0 mm 0 mps 685 mmHg 54%
    06:00 +20°C° 0 mm 1 mps 685 mmHg 51%
    07:00 +20°C° 0 mm 1 mps 686 mmHg 47%
    08:00 +22°C° 0 mm 1 mps 686 mmHg 44%
    09:00 +23°C° 0 mm 2 mps 687 mmHg 41%
    10:00 +25°C° 0 mm 2 mps 687 mmHg 38%
    11:00 +26°C° 0 mm 3 mps 687 mmHg 33%
    12:00 +28°C° 0 mm 4 mps 687 mmHg 28%
    13:00 +29°C° 0 mm 5 mps 687 mmHg 24%
    14:00 +30°C° 0 mm 5 mps 687 mmHg 22%
    15:00 +32°C° 0 mm 5 mps 686 mmHg 20%
    16:00 +32°C° 0 mm 6 mps 686 mmHg 19%
    17:00 +32°C° 0 mm 5 mps 686 mmHg 20%
    18:00 +30°C° 0 mm 5 mps 686 mmHg 21%
    19:00 +29°C° 0 mm 4 mps 686 mmHg 22%
    20:00 +28°C° 0 mm 3 mps 686 mmHg 26%
    21:00 +27°C° 0 mm 2 mps 686 mmHg 30%
    22:00 +26°C° 0 mm 1 mps 686 mmHg 34%
    23:00 +26°C° 0 mm 1 mps 686 mmHg 36%

    7 June, Sunday

    Time Temperature Precipitation Wind Pressure Humidity
    00:00 +25°C° 0 mm 2 mps 685 mmHg 37%
    01:00 +25°C° 0 mm 2 mps 685 mmHg 39%
    02:00 +24°C° 0 mm 2 mps 685 mmHg 41%
    03:00 +24°C° 0 mm 2 mps 684 mmHg 43%
    04:00 +24°C° 0 mm 2 mps 684 mmHg 45%
    05:00 +25°C° 0 mm 2 mps 684 mmHg 43%
    06:00 +25°C° 0 mm 2 mps 685 mmHg 40%
    07:00 +26°C° 0 mm 2 mps 685 mmHg 38%
    08:00 +27°C° 0 mm 4 mps 685 mmHg 34%
    09:00 +29°C° 0 mm 6 mps 686 mmHg 30%
    10:00 +30°C° 0 mm 7 mps 686 mmHg 26%
    11:00 +32°C° 0 mm 8 mps 686 mmHg 24%
    12:00 +33°C° 0 mm 8 mps 686 mmHg 23%
    13:00 +33°C° 0 mm 8 mps 686 mmHg 21%
    14:00 +33°C° 0.1 mm 7 mps 686 mmHg 22%
    15:00 +33°C° 0.1 mm 7 mps 685 mmHg 22%
    16:00 +33°C° 0.1 mm 6 mps 685 mmHg 23%
    17:00 +32°C° 0 mm 6 mps 685 mmHg 26%
    18:00 +30°C° 0 mm 6 mps 684 mmHg 29%
    19:00 +29°C° 0 mm 5 mps 684 mmHg 33%
    20:00 +27°C° 0.1 mm 5 mps 684 mmHg 40%
    21:00 +25°C° 0.1 mm 5 mps 685 mmHg 47%
    22:00 +22°C° 0.1 mm 5 mps 685 mmHg 53%
    23:00 +21°C° 0 mm 5 mps 685 mmHg 56%

    8 June, Monday

    Time Temperature Precipitation Wind Pressure Humidity
    00:00 +20°C° 0 mm 4 mps 684 mmHg 59%
    01:00 +19°C° 0 mm 3 mps 684 mmHg 62%
    02:00 +18°C° 0 mm 3 mps 684 mmHg 61%
    03:00 +18°C° 0 mm 3 mps 684 mmHg 60%
    04:00 +18°C° 0 mm 3 mps 683 mmHg 60%
    05:00 +19°C° 0 mm 3 mps 684 mmHg 57%
    06:00 +19°C° 0 mm 3 mps 684 mmHg 54%
    07:00 +20°C° 0 mm 3 mps 684 mmHg 51%
    08:00 +21°C° 0 mm 3 mps 684 mmHg 47%
    09:00 +24°C° 0 mm 3 mps 685 mmHg 42%
    10:00 +26°C° 0 mm 2 mps 685 mmHg 38%
    11:00 +27°C° 0 mm 2 mps 685 mmHg 34%
    12:00 +28°C° 0 mm 2 mps 685 mmHg 30%
    13:00 +30°C° 0 mm 2 mps 686 mmHg 26%
    14:00 +30°C° 0 mm 2 mps 685 mmHg 25%
    15:00 +31°C° 0 mm 2 mps 685 mmHg 24%
    16:00 +31°C° 0 mm 3 mps 685 mmHg 23%
    17:00 +31°C° 0 mm 3 mps 685 mmHg 25%
    18:00 +30°C° 0 mm 4 mps 685 mmHg 27%
    19:00 +29°C° 0 mm 5 mps 685 mmHg 29%
    20:00 +28°C° 0 mm 5 mps 685 mmHg 35%
    21:00 +26°C° 0 mm 4 mps 685 mmHg 40%
    22:00 +25°C° 0 mm 4 mps 685 mmHg 46%
    23:00 +23°C° 0 mm 4 mps 685 mmHg 49%
    Show more